contact:dominique.lefevre@mio.osupytheas.fr, maurice.libes@osupytheas.fr, didier.mallarino@osupytheas.fr
Project:EMSO http://www.emso-fr.org/EMSO-France
Depth: 2436.0 m
Title:EMSO Ligure Ouest : Data MII capteur MICROCAT
DateTime_Computer,Latitude,Longitude,Temperature,Conductivity,Pressure,DateTime_Instrument
DateTime_Computer,Latitude,Longitude,degC,S m-1,dbar,DateTime_Instrument
2021-02-24T00:00:52Z,42.805,6.029,13.2986,4.59992,2470.217,2021-2-24T02:01:56Z
2021-02-24T00:03:55Z,42.805,6.029,13.2990,4.59992,2470.156,2021-2-24T02:04:59Z
2021-02-24T00:06:58Z,42.805,6.029,13.2991,4.59992,2470.194,2021-2-24T02:08:02Z
2021-02-24T00:10:01Z,42.805,6.029,13.2990,4.59993,2470.18,2021-2-24T02:11:05Z
2021-02-24T00:13:04Z,42.805,6.029,13.2990,4.59992,2470.156,2021-2-24T02:14:09Z
2021-02-24T00:16:07Z,42.805,6.029,13.2987,4.59991,2470.156,2021-2-24T02:17:12Z
2021-02-24T00:19:10Z,42.805,6.029,13.2990,4.59991,2470.18,2021-2-24T02:20:15Z
2021-02-24T00:22:13Z,42.805,6.029,13.2993,4.59992,2470.171,2021-2-24T02:23:18Z
2021-02-24T00:25:16Z,42.805,6.029,13.2985,4.59992,2470.18,2021-2-24T02:26:21Z
2021-02-24T00:28:20Z,42.805,6.029,13.2989,4.59992,2470.18,2021-2-24T02:29:24Z
2021-02-24T00:31:23Z,42.805,6.029,13.2987,4.59991,2470.147,2021-2-24T02:32:27Z
2021-02-24T00:34:26Z,42.805,6.029,13.2990,4.59991,2470.18,2021-2-24T02:35:30Z
2021-02-24T00:37:29Z,42.805,6.029,13.2986,4.59992,2470.18,2021-2-24T02:38:34Z
2021-02-24T00:40:32Z,42.805,6.029,13.2991,4.59992,2470.18,2021-2-24T02:41:37Z
2021-02-24T00:43:35Z,42.805,6.029,13.2990,4.59992,2470.18,2021-2-24T02:44:40Z
2021-02-24T00:46:38Z,42.805,6.029,13.2990,4.59992,2470.203,2021-2-24T02:47:43Z
2021-02-24T00:49:41Z,42.805,6.029,13.2991,4.59993,2470.203,2021-2-24T02:50:46Z
2021-02-24T00:52:45Z,42.805,6.029,13.2989,4.59991,2470.194,2021-2-24T02:53:49Z
2021-02-24T00:55:48Z,42.805,6.029,13.2987,4.59991,2470.18,2021-2-24T02:56:52Z
2021-02-24T00:58:51Z,42.805,6.029,13.2987,4.59992,2470.203,2021-2-24T02:59:55Z
2021-02-24T01:01:54Z,42.805,6.029,13.2991,4.59991,2470.203,2021-2-24T03:02:59Z
2021-02-24T01:04:57Z,42.805,6.029,13.2986,4.59991,2470.18,2021-2-24T03:06:02Z
2021-02-24T01:08:00Z,42.805,6.029,13.2991,4.59992,2470.18,2021-2-24T03:09:05Z
2021-02-24T01:11:03Z,42.805,6.029,13.2991,4.59992,2470.194,2021-2-24T03:12:08Z
2021-02-24T01:14:06Z,42.805,6.029,13.2989,4.59992,2470.18,2021-2-24T03:15:11Z
2021-02-24T01:17:10Z,42.805,6.029,13.2990,4.59991,2470.18,2021-2-24T03:18:14Z
2021-02-24T01:20:13Z,42.805,6.029,13.2991,4.59991,2470.203,2021-2-24T03:21:17Z
2021-02-24T01:23:16Z,42.805,6.029,13.2990,4.59991,2470.227,2021-2-24T03:24:20Z
2021-02-24T01:26:19Z,42.805,6.029,13.2988,4.59993,2470.217,2021-2-24T03:27:24Z
2021-02-24T01:29:22Z,42.805,6.029,13.2988,4.59992,2470.203,2021-2-24T03:30:27Z
2021-02-24T01:32:25Z,42.805,6.029,13.2990,4.59992,2470.217,2021-2-24T03:33:30Z
2021-02-24T01:35:28Z,42.805,6.029,13.2990,4.59992,2470.194,2021-2-24T03:36:33Z
2021-02-24T01:38:31Z,42.805,6.029,13.2991,4.59993,2470.217,2021-2-24T03:39:36Z
2021-02-24T01:41:35Z,42.805,6.029,13.2989,4.59992,2470.194,2021-2-24T03:42:39Z
2021-02-24T01:44:38Z,42.805,6.029,13.2990,4.59991,2470.203,2021-2-24T03:45:42Z
2021-02-24T01:47:41Z,42.805,6.029,13.2988,4.59993,2470.217,2021-2-24T03:48:45Z
2021-02-24T01:50:44Z,42.805,6.029,13.2991,4.59993,2470.227,2021-2-24T03:51:49Z
2021-02-24T01:53:47Z,42.805,6.029,13.2990,4.59992,2470.217,2021-2-24T03:54:52Z
2021-02-24T01:56:50Z,42.805,6.029,13.2990,4.59993,2470.203,2021-2-24T03:57:55Z
2021-02-24T01:59:53Z,42.805,6.029,13.2984,4.59992,2470.24,2021-2-24T04:00:58Z
2021-02-24T02:02:56Z,42.805,6.029,13.2990,4.59993,2470.24,2021-2-24T04:04:01Z
2021-02-24T02:06:00Z,42.805,6.029,13.2989,4.59993,2470.227,2021-2-24T04:07:04Z
2021-02-24T02:09:03Z,42.805,6.029,13.2988,4.59993,2470.203,2021-2-24T04:10:07Z
2021-02-24T02:12:06Z,42.805,6.029,13.2989,4.59994,2470.217,2021-2-24T04:13:10Z
2021-02-24T02:15:09Z,42.805,6.029,13.2990,4.59992,2470.227,2021-2-24T04:16:14Z
2021-02-24T02:18:12Z,42.805,6.029,13.2987,4.59992,2470.227,2021-2-24T04:19:17Z
2021-02-24T02:21:15Z,42.805,6.029,13.2987,4.59993,2470.227,2021-2-24T04:22:20Z
2021-02-24T02:24:18Z,42.805,6.029,13.2990,4.59993,2470.264,2021-2-24T04:25:23Z
2021-02-24T02:27:21Z,42.805,6.029,13.2990,4.59992,2470.25,2021-2-24T04:28:26Z
2021-02-24T02:30:25Z,42.805,6.029,13.2991,4.59992,2470.264,2021-2-24T04:31:29Z
2021-02-24T02:33:28Z,42.805,6.029,13.2992,4.59993,2470.264,2021-2-24T04:34:32Z
2021-02-24T02:36:31Z,42.805,6.029,13.2993,4.59992,2470.25,2021-2-24T04:37:35Z
2021-02-24T02:39:34Z,42.805,6.029,13.2991,4.59995,2470.25,2021-2-24T04:40:39Z
2021-02-24T02:42:37Z,42.805,6.029,13.2990,4.59994,2470.227,2021-2-24T04:43:42Z
2021-02-24T02:45:40Z,42.805,6.029,13.2990,4.59993,2470.213,2021-2-24T04:46:45Z
2021-02-24T02:48:43Z,42.805,6.029,13.2990,4.59993,2470.25,2021-2-24T04:49:48Z
2021-02-24T02:51:46Z,42.805,6.029,13.2991,4.59993,2470.264,2021-2-24T04:52:51Z
2021-02-24T02:54:50Z,42.805,6.029,13.2992,4.59992,2470.273,2021-2-24T04:55:54Z
2021-02-24T02:57:53Z,42.805,6.029,13.2992,4.59992,2470.25,2021-2-24T04:58:57Z
2021-02-24T03:00:56Z,42.805,6.029,13.2987,4.59993,2470.264,2021-2-24T05:02:00Z
2021-02-24T03:03:59Z,42.805,6.029,13.2989,4.59994,2470.25,2021-2-24T05:05:03Z
2021-02-24T03:07:02Z,42.805,6.029,13.2991,4.59993,2470.227,2021-2-24T05:08:07Z
2021-02-24T03:10:05Z,42.805,6.029,13.2993,4.59993,2470.264,2021-2-24T05:11:10Z
2021-02-24T03:13:08Z,42.805,6.029,13.2987,4.59993,2470.25,2021-2-24T05:14:13Z
2021-02-24T03:16:11Z,42.805,6.029,13.2991,4.59993,2470.24,2021-2-24T05:17:16Z
2021-02-24T03:19:15Z,42.805,6.029,13.2990,4.59995,2470.287,2021-2-24T05:20:19Z
2021-02-24T03:22:18Z,42.805,6.029,13.2988,4.59994,2470.273,2021-2-24T05:23:22Z
2021-02-24T03:25:21Z,42.805,6.029,13.2989,4.59994,2470.297,2021-2-24T05:26:25Z
2021-02-24T03:28:24Z,42.805,6.029,13.2991,4.59994,2470.273,2021-2-24T05:29:28Z
2021-02-24T03:31:27Z,42.805,6.029,13.2991,4.59993,2470.273,2021-2-24T05:32:32Z
2021-02-24T03:34:30Z,42.805,6.029,13.2991,4.59993,2470.283,2021-2-24T05:35:35Z
2021-02-24T03:37:33Z,42.805,6.029,13.2991,4.59993,2470.334,2021-2-24T05:38:38Z
2021-02-24T03:40:36Z,42.805,6.029,13.2988,4.59994,2470.297,2021-2-24T05:41:41Z
2021-02-24T03:43:39Z,42.805,6.029,13.2991,4.59993,2470.297,2021-2-24T05:44:44Z
2021-02-24T03:46:43Z,42.805,6.029,13.2995,4.59993,2470.32,2021-2-24T05:47:47Z
2021-02-24T03:49:46Z,42.805,6.029,13.2989,4.59993,2470.297,2021-2-24T05:50:50Z
2021-02-24T03:52:49Z,42.805,6.029,13.2991,4.59994,2470.297,2021-2-24T05:53:53Z
2021-02-24T03:55:52Z,42.805,6.029,13.2991,4.59993,2470.297,2021-2-24T05:56:57Z
2021-02-24T03:58:55Z,42.805,6.029,13.2991,4.59994,2470.32,2021-2-24T06:00:00Z
2021-02-24T04:01:58Z,42.805,6.029,13.2991,4.59994,2470.357,2021-2-24T06:03:03Z
2021-02-24T04:05:01Z,42.805,6.029,13.2988,4.59994,2470.32,2021-2-24T06:06:06Z
2021-02-24T04:08:04Z,42.805,6.029,13.2995,4.59993,2470.334,2021-2-24T06:09:09Z
2021-02-24T04:11:08Z,42.805,6.029,13.2990,4.59994,2470.32,2021-2-24T06:12:12Z
2021-02-24T04:14:11Z,42.805,6.029,13.2991,4.59994,2470.273,2021-2-24T06:15:15Z
2021-02-24T04:17:14Z,42.805,6.029,13.2987,4.59993,2470.32,2021-2-24T06:18:18Z
2021-02-24T04:20:17Z,42.805,6.029,13.2992,4.59994,2470.32,2021-2-24T06:21:22Z
2021-02-24T04:23:20Z,42.805,6.029,13.2991,4.59993,2470.334,2021-2-24T06:24:25Z
2021-02-24T04:26:23Z,42.805,6.029,13.2990,4.59993,2470.32,2021-2-24T06:27:28Z
2021-02-24T04:29:26Z,42.805,6.029,13.2991,4.59994,2470.32,2021-2-24T06:30:31Z
2021-02-24T04:32:29Z,42.805,6.029,13.2991,4.59993,2470.32,2021-2-24T06:33:34Z
2021-02-24T04:35:33Z,42.805,6.029,13.2992,4.59994,2470.334,2021-2-24T06:36:37Z
2021-02-24T04:38:36Z,42.805,6.029,13.2991,4.59993,2470.32,2021-2-24T06:39:40Z
2021-02-24T04:41:39Z,42.805,6.029,13.2989,4.59994,2470.32,2021-2-24T06:42:43Z
2021-02-24T04:44:42Z,42.805,6.029,13.2989,4.59994,2470.334,2021-2-24T06:45:47Z
2021-02-24T04:47:45Z,42.805,6.029,13.2991,4.59994,2470.334,2021-2-24T06:48:50Z
2021-02-24T04:50:48Z,42.805,6.029,13.2992,4.59993,2470.32,2021-2-24T06:51:53Z
2021-02-24T04:53:51Z,42.805,6.029,13.2987,4.59994,2470.32,2021-2-24T06:54:56Z
2021-02-24T04:56:54Z,42.805,6.029,13.2991,4.59994,2470.343,2021-2-24T06:57:59Z
2021-02-24T04:59:58Z,42.805,6.029,13.2988,4.59993,2470.334,2021-2-24T07:01:02Z
2021-02-24T05:03:01Z,42.805,6.029,13.2991,4.59993,2470.357,2021-2-24T07:04:05Z
2021-02-24T05:06:04Z,42.805,6.029,13.2991,4.59993,2470.32,2021-2-24T07:07:08Z
2021-02-24T05:09:07Z,42.805,6.029,13.2990,4.59994,2470.32,2021-2-24T07:10:12Z
2021-02-24T05:12:10Z,42.805,6.029,13.2992,4.59993,2470.297,2021-2-24T07:13:15Z
2021-02-24T05:15:13Z,42.805,6.029,13.2990,4.59993,2470.343,2021-2-24T07:16:18Z
2021-02-24T05:18:16Z,42.805,6.029,13.2989,4.59994,2470.343,2021-2-24T07:19:21Z
2021-02-24T05:21:19Z,42.805,6.029,13.2987,4.59994,2470.32,2021-2-24T07:22:24Z
2021-02-24T05:24:23Z,42.805,6.029,13.2989,4.59993,2470.32,2021-2-24T07:25:27Z
2021-02-24T05:27:26Z,42.805,6.029,13.2991,4.59994,2470.38,2021-2-24T07:28:30Z
2021-02-24T05:30:29Z,42.805,6.029,13.2993,4.59993,2470.334,2021-2-24T07:31:33Z
2021-02-24T05:33:32Z,42.805,6.029,13.2990,4.59993,2470.343,2021-2-24T07:34:37Z
2021-02-24T05:36:35Z,42.805,6.029,13.2986,4.59995,2470.38,2021-2-24T07:37:40Z
2021-02-24T05:39:38Z,42.805,6.029,13.2990,4.59994,2470.32,2021-2-24T07:40:43Z
2021-02-24T05:42:41Z,42.805,6.029,13.2987,4.59994,2470.343,2021-2-24T07:43:46Z
2021-02-24T05:45:44Z,42.805,6.029,13.2991,4.59994,2470.357,2021-2-24T07:46:49Z
2021-02-24T05:48:48Z,42.805,6.029,13.2990,4.59993,2470.353,2021-2-24T07:49:52Z
2021-02-24T05:51:51Z,42.805,6.029,13.2990,4.59993,2470.357,2021-2-24T07:52:55Z
2021-02-24T05:54:54Z,42.805,6.029,13.2985,4.59993,2470.334,2021-2-24T07:55:58Z
2021-02-24T05:57:57Z,42.805,6.029,13.2989,4.59994,2470.357,2021-2-24T07:59:02Z
2021-02-24T06:01:00Z,42.805,6.029,13.2989,4.59994,2470.366,2021-2-24T08:02:05Z
2021-02-24T06:04:03Z,42.805,6.029,13.2989,4.59994,2470.32,2021-2-24T08:05:08Z
2021-02-24T06:07:06Z,42.805,6.029,13.2988,4.59993,2470.357,2021-2-24T08:08:11Z
2021-02-24T06:10:09Z,42.805,6.029,13.2991,4.59993,2470.357,2021-2-24T08:11:14Z
2021-02-24T06:13:13Z,42.805,6.029,13.2990,4.59993,2470.38,2021-2-24T08:14:17Z
2021-02-24T06:16:16Z,42.805,6.029,13.2992,4.59993,2470.38,2021-2-24T08:17:20Z
2021-02-24T06:19:19Z,42.805,6.029,13.2991,4.59993,2470.357,2021-2-24T08:20:23Z
2021-02-24T06:22:22Z,42.805,6.029,13.2993,4.59993,2470.32,2021-2-24T08:23:26Z
2021-02-24T06:25:25Z,42.805,6.029,13.2991,4.59993,2470.343,2021-2-24T08:26:30Z
2021-02-24T06:28:28Z,42.805,6.029,13.2990,4.59994,2470.334,2021-2-24T08:29:33Z
2021-02-24T06:31:31Z,42.805,6.029,13.2990,4.59993,2470.366,2021-2-24T08:32:36Z
2021-02-24T06:34:34Z,42.805,6.029,13.2991,4.59993,2470.357,2021-2-24T08:35:39Z
2021-02-24T06:37:37Z,42.805,6.029,13.2990,4.59994,2470.357,2021-2-24T08:38:42Z
2021-02-24T06:40:41Z,42.805,6.029,13.2992,4.59993,2470.343,2021-2-24T08:41:45Z
2021-02-24T06:43:44Z,42.805,6.029,13.2988,4.59993,2470.343,2021-2-24T08:44:48Z
2021-02-24T06:46:47Z,42.805,6.029,13.2991,4.59993,2470.343,2021-2-24T08:47:51Z
2021-02-24T06:49:50Z,42.805,6.029,13.2994,4.59995,2470.366,2021-2-24T08:50:55Z
2021-02-24T06:52:53Z,42.805,6.029,13.2987,4.59993,2470.343,2021-2-24T08:53:58Z
2021-02-24T06:55:56Z,42.805,6.029,13.2989,4.59994,2470.357,2021-2-24T08:57:01Z
2021-02-24T06:58:59Z,42.805,6.029,13.2990,4.59993,2470.357,2021-2-24T09:00:04Z
2021-02-24T07:02:02Z,42.805,6.029,13.2988,4.59993,2470.343,2021-2-24T09:03:07Z
2021-02-24T07:05:06Z,42.805,6.029,13.2991,4.59993,2470.357,2021-2-24T09:06:10Z
2021-02-24T07:08:09Z,42.805,6.029,13.2989,4.59994,2470.334,2021-2-24T09:09:13Z
2021-02-24T07:11:12Z,42.805,6.029,13.2989,4.59993,2470.343,2021-2-24T09:12:16Z
2021-02-24T07:14:15Z,42.805,6.029,13.2989,4.59993,2470.39,2021-2-24T09:15:20Z
2021-02-24T07:17:18Z,42.805,6.029,13.2991,4.59994,2470.366,2021-2-24T09:18:23Z
2021-02-24T07:20:21Z,42.805,6.029,13.2989,4.59993,2470.39,2021-2-24T09:21:26Z
2021-02-24T07:23:24Z,42.805,6.029,13.2989,4.59993,2470.32,2021-2-24T09:24:29Z
2021-02-24T07:26:27Z,42.805,6.029,13.2990,4.59993,2470.343,2021-2-24T09:27:32Z
2021-02-24T07:29:31Z,42.805,6.029,13.2993,4.59993,2470.343,2021-2-24T09:30:35Z
2021-02-24T07:32:34Z,42.805,6.029,13.2991,4.59994,2470.32,2021-2-24T09:33:38Z
2021-02-24T07:35:37Z,42.805,6.029,13.2993,4.59993,2470.343,2021-2-24T09:36:41Z
2021-02-24T07:38:40Z,42.805,6.029,13.2992,4.59994,2470.343,2021-2-24T09:39:45Z
2021-02-24T07:41:43Z,42.805,6.029,13.2990,4.59993,2470.32,2021-2-24T09:42:48Z
2021-02-24T07:44:46Z,42.805,6.029,13.2988,4.59992,2470.357,2021-2-24T09:45:51Z
2021-02-24T07:47:49Z,42.805,6.029,13.2989,4.59993,2470.32,2021-2-24T09:48:54Z
2021-02-24T07:50:52Z,42.805,6.029,13.2990,4.59993,2470.334,2021-2-24T09:51:57Z
2021-02-24T07:53:56Z,42.805,6.029,13.2990,4.59992,2470.334,2021-2-24T09:55:00Z
2021-02-24T07:56:59Z,42.805,6.029,13.2991,4.59993,2470.31,2021-2-24T09:58:03Z
2021-02-24T08:00:02Z,42.805,6.029,13.2990,4.59993,2470.32,2021-2-24T10:01:06Z
2021-02-24T08:03:05Z,42.805,6.029,13.2989,4.59992,2470.32,2021-2-24T10:04:10Z
2021-02-24T08:06:08Z,42.805,6.029,13.2991,4.59993,2470.334,2021-2-24T10:07:13Z
2021-02-24T08:09:11Z,42.805,6.029,13.2991,4.59993,2470.343,2021-2-24T10:10:16Z
2021-02-24T08:12:14Z,42.805,6.029,13.2985,4.59994,2470.31,2021-2-24T10:13:19Z
2021-02-24T08:15:17Z,42.805,6.029,13.2990,4.59992,2470.297,2021-2-24T10:16:22Z
2021-02-24T08:18:21Z,42.805,6.029,13.2986,4.59993,2470.334,2021-2-24T10:19:25Z
2021-02-24T08:21:24Z,42.805,6.029,13.2988,4.59992,2470.343,2021-2-24T10:22:28Z
2021-02-24T08:24:27Z,42.805,6.029,13.2987,4.59993,2470.357,2021-2-24T10:25:31Z
2021-02-24T08:27:30Z,42.805,6.029,13.2990,4.59992,2470.32,2021-2-24T10:28:35Z
2021-02-24T08:30:33Z,42.805,6.029,13.2988,4.59993,2470.283,2021-2-24T10:31:38Z
2021-02-24T08:33:36Z,42.805,6.029,13.2988,4.59992,2470.32,2021-2-24T10:34:41Z
2021-02-24T08:36:39Z,42.805,6.029,13.2985,4.59993,2470.273,2021-2-24T10:37:44Z
2021-02-24T08:39:42Z,42.805,6.029,13.2989,4.59992,2470.32,2021-2-24T10:40:47Z
2021-02-24T08:42:46Z,42.805,6.029,13.2986,4.59992,2470.297,2021-2-24T10:43:50Z
2021-02-24T08:45:49Z,42.805,6.029,13.2992,4.59993,2470.31,2021-2-24T10:46:53Z
2021-02-24T08:48:52Z,42.805,6.029,13.2989,4.59993,2470.31,2021-2-24T10:49:57Z
2021-02-24T08:51:55Z,42.805,6.029,13.2992,4.59994,2470.273,2021-2-24T10:53:00Z
2021-02-24T08:54:58Z,42.805,6.029,13.2991,4.59992,2470.273,2021-2-24T10:56:03Z
2021-02-24T08:58:01Z,42.805,6.029,13.2991,4.59993,2470.287,2021-2-24T10:59:06Z
2021-02-24T09:01:04Z,42.805,6.029,13.2990,4.59993,2470.273,2021-2-24T11:02:09Z
2021-02-24T09:04:07Z,42.805,6.029,13.2990,4.59993,2470.273,2021-2-24T11:05:12Z
2021-02-24T09:07:11Z,42.805,6.029,13.2991,4.59991,2470.31,2021-2-24T11:08:15Z
2021-02-24T09:10:14Z,42.805,6.029,13.2988,4.59993,2470.287,2021-2-24T11:11:18Z
2021-02-24T09:13:17Z,42.805,6.029,13.2991,4.59993,2470.334,2021-2-24T11:14:21Z
2021-02-24T09:16:20Z,42.805,6.029,13.2990,4.59993,2470.297,2021-2-24T11:17:25Z
2021-02-24T09:19:23Z,42.805,6.029,13.2991,4.59992,2470.287,2021-2-24T11:20:28Z
2021-02-24T09:22:26Z,42.805,6.029,13.2990,4.59993,2470.264,2021-2-24T11:23:31Z
2021-02-24T09:25:29Z,42.805,6.029,13.2990,4.59993,2470.32,2021-2-24T11:26:34Z
2021-02-24T09:28:33Z,42.805,6.029,13.2989,4.59992,2470.32,2021-2-24T11:29:37Z
2021-02-24T09:31:36Z,42.805,6.029,13.2990,4.59993,2470.31,2021-2-24T11:32:40Z
2021-02-24T09:34:39Z,42.805,6.029,13.2988,4.59993,2470.297,2021-2-24T11:35:43Z
2021-02-24T09:37:42Z,42.805,6.029,13.2991,4.59993,2470.297,2021-2-24T11:38:47Z
2021-02-24T09:40:45Z,42.805,6.029,13.2990,4.59993,2470.31,2021-2-24T11:41:50Z
2021-02-24T09:43:48Z,42.805,6.029,13.2991,4.59992,2470.297,2021-2-24T11:44:53Z
2021-02-24T09:46:51Z,42.805,6.029,13.2990,4.59993,2470.25,2021-2-24T11:47:56Z
2021-02-24T09:49:54Z,42.805,6.029,13.2991,4.59993,2470.273,2021-2-24T11:50:59Z
2021-02-24T09:52:58Z,42.805,6.029,13.2989,4.59993,2470.25,2021-2-24T11:54:02Z
2021-02-24T09:56:01Z,42.805,6.029,13.2993,4.59992,2470.273,2021-2-24T11:57:05Z
2021-02-24T09:59:04Z,42.805,6.029,13.2990,4.59993,2470.287,2021-2-24T12:00:08Z
2021-02-24T10:02:07Z,42.805,6.029,13.2987,4.59994,2470.264,2021-2-24T12:03:12Z
2021-02-24T10:05:10Z,42.805,6.029,13.2988,4.59993,2470.287,2021-2-24T12:06:15Z
2021-02-24T10:08:13Z,42.805,6.029,13.2990,4.59993,2470.273,2021-2-24T12:09:18Z
2021-02-24T10:11:16Z,42.805,6.029,13.2992,4.59994,2470.273,2021-2-24T12:12:21Z
2021-02-24T10:14:19Z,42.805,6.029,13.2989,4.59992,2470.287,2021-2-24T12:15:24Z
2021-02-24T10:17:23Z,42.805,6.029,13.2990,4.59993,2470.26,2021-2-24T12:18:27Z
2021-02-24T10:20:26Z,42.805,6.029,13.2989,4.59992,2470.25,2021-2-24T12:21:30Z
2021-02-24T10:23:29Z,42.805,6.029,13.2986,4.59992,2470.25,2021-2-24T12:24:33Z
2021-02-24T10:26:32Z,42.805,6.029,13.2993,4.59993,2470.25,2021-2-24T12:27:37Z
2021-02-24T10:29:35Z,42.805,6.029,13.2991,4.59992,2470.287,2021-2-24T12:30:40Z
2021-02-24T10:32:38Z,42.805,6.029,13.2986,4.59992,2470.25,2021-2-24T12:33:43Z
2021-02-24T10:35:41Z,42.805,6.029,13.2991,4.59992,2470.264,2021-2-24T12:36:46Z
2021-02-24T10:38:44Z,42.805,6.029,13.2990,4.59992,2470.297,2021-2-24T12:39:49Z
2021-02-24T10:41:48Z,42.805,6.029,13.2991,4.59992,2470.25,2021-2-24T12:42:52Z
2021-02-24T10:44:51Z,42.805,6.029,13.2989,4.59991,2470.25,2021-2-24T12:45:55Z
2021-02-24T10:47:54Z,42.805,6.029,13.2990,4.59993,2470.264,2021-2-24T12:48:59Z
2021-02-24T10:50:57Z,42.805,6.029,13.2989,4.59993,2470.264,2021-2-24T12:52:02Z
2021-02-24T10:54:00Z,42.805,6.029,13.2986,4.59993,2470.227,2021-2-24T12:55:05Z
2021-02-24T10:57:03Z,42.805,6.029,13.2986,4.59993,2470.264,2021-2-24T12:58:08Z
2021-02-24T11:00:06Z,42.805,6.029,13.2989,4.59991,2470.25,2021-2-24T13:01:11Z
2021-02-24T11:03:09Z,42.805,6.029,13.2989,4.59992,2470.25,2021-2-24T13:04:14Z
2021-02-24T11:06:13Z,42.805,6.029,13.2986,4.59991,2470.24,2021-2-24T13:07:17Z
2021-02-24T11:09:16Z,42.805,6.029,13.2984,4.59992,2470.25,2021-2-24T13:10:20Z
2021-02-24T11:12:19Z,42.805,6.029,13.2987,4.59991,2470.25,2021-2-24T13:13:24Z
2021-02-24T11:15:22Z,42.805,6.029,13.2987,4.59992,2470.24,2021-2-24T13:16:27Z
2021-02-24T11:18:25Z,42.805,6.029,13.2991,4.59993,2470.25,2021-2-24T13:19:30Z
2021-02-24T11:21:28Z,42.805,6.029,13.2989,4.59992,2470.227,2021-2-24T13:22:33Z
2021-02-24T11:24:31Z,42.805,6.029,13.2991,4.59991,2470.24,2021-2-24T13:25:36Z
2021-02-24T11:27:35Z,42.805,6.029,13.2989,4.59991,2470.24,2021-2-24T13:28:39Z
2021-02-24T11:30:38Z,42.805,6.029,13.2988,4.59991,2470.25,2021-2-24T13:31:42Z
2021-02-24T11:33:41Z,42.805,6.029,13.2990,4.59991,2470.227,2021-2-24T13:34:45Z
2021-02-24T11:36:44Z,42.805,6.029,13.2987,4.59993,2470.213,2021-2-24T13:37:49Z
2021-02-24T11:39:47Z,42.805,6.029,13.2986,4.59992,2470.227,2021-2-24T13:40:52Z
2021-02-24T11:42:50Z,42.805,6.029,13.2989,4.59991,2470.227,2021-2-24T13:43:55Z
2021-02-24T11:45:53Z,42.805,6.029,13.2991,4.59993,2470.227,2021-2-24T13:46:58Z
2021-02-24T11:48:56Z,42.805,6.029,13.2990,4.59992,2470.25,2021-2-24T13:50:01Z
2021-02-24T11:52:00Z,42.805,6.029,13.2990,4.59991,2470.203,2021-2-24T13:53:04Z
2021-02-24T11:55:03Z,42.805,6.029,13.2990,4.59992,2470.227,2021-2-24T13:56:07Z
2021-02-24T11:58:06Z,42.805,6.029,13.2991,4.59992,2470.203,2021-2-24T13:59:10Z
2021-02-24T12:01:09Z,42.805,6.029,13.2989,4.59992,2470.203,2021-2-24T14:02:14Z
2021-02-24T12:04:12Z,42.805,6.029,13.2985,4.59991,2470.203,2021-2-24T14:05:17Z
2021-02-24T12:07:15Z,42.805,6.029,13.2990,4.59992,2470.203,2021-2-24T14:08:20Z
2021-02-24T12:10:18Z,42.805,6.029,13.2990,4.59991,2470.203,2021-2-24T14:11:23Z
2021-02-24T12:13:21Z,42.805,6.029,13.2990,4.59992,2470.194,2021-2-24T14:14:26Z
2021-02-24T12:16:25Z,42.805,6.029,13.2991,4.59992,2470.203,2021-2-24T14:17:29Z
2021-02-24T12:19:28Z,42.805,6.029,13.2988,4.59991,2470.156,2021-2-24T14:20:32Z
2021-02-24T12:22:31Z,42.805,6.029,13.2990,4.59991,2470.203,2021-2-24T14:23:35Z
2021-02-24T12:25:34Z,42.805,6.029,13.2986,4.59992,2470.203,2021-2-24T14:26:39Z
2021-02-24T12:28:37Z,42.805,6.029,13.2988,4.59992,2470.18,2021-2-24T14:29:42Z
2021-02-24T12:31:40Z,42.805,6.029,13.2989,4.59992,2470.203,2021-2-24T14:32:45Z
2021-02-24T12:34:43Z,42.805,6.029,13.2990,4.59992,2470.217,2021-2-24T14:35:48Z
2021-02-24T12:37:46Z,42.805,6.029,13.2991,4.59992,2470.203,2021-2-24T14:38:51Z
2021-02-24T12:40:50Z,42.805,6.029,13.2989,4.59992,2470.18,2021-2-24T14:41:54Z
2021-02-24T12:43:53Z,42.805,6.029,13.2986,4.59992,2470.18,2021-2-24T14:44:57Z
2021-02-24T12:46:56Z,42.805,6.029,13.2988,4.59992,2470.194,2021-2-24T14:48:00Z
2021-02-24T12:49:59Z,42.805,6.029,13.2992,4.59991,2470.171,2021-2-24T14:51:04Z
2021-02-24T12:53:02Z,42.805,6.029,13.2986,4.59992,2470.18,2021-2-24T14:54:07Z
2021-02-24T12:56:05Z,42.805,6.029,13.2988,4.59991,2470.18,2021-2-24T14:57:10Z
2021-02-24T12:59:08Z,42.805,6.029,13.2991,4.59991,2470.227,2021-2-24T15:00:13Z
2021-02-24T13:02:11Z,42.805,6.029,13.2989,4.59992,2470.217,2021-2-24T15:03:16Z
2021-02-24T13:05:15Z,42.805,6.029,13.2990,4.59993,2470.194,2021-2-24T15:06:19Z
2021-02-24T13:08:18Z,42.805,6.029,13.2990,4.59992,2470.18,2021-2-24T15:09:22Z
2021-02-24T13:11:21Z,42.805,6.029,13.2987,4.59992,2470.18,2021-2-24T15:12:26Z
2021-02-24T13:14:24Z,42.805,6.029,13.2986,4.59992,2470.227,2021-2-24T15:15:29Z
2021-02-24T13:17:27Z,42.805,6.029,13.2990,4.59992,2470.194,2021-2-24T15:18:32Z
2021-02-24T13:20:30Z,42.805,6.029,13.2989,4.59994,2470.217,2021-2-24T15:21:35Z
2021-02-24T13:23:33Z,42.805,6.029,13.2988,4.59992,2470.217,2021-2-24T15:24:38Z
2021-02-24T13:26:37Z,42.805,6.029,13.2989,4.59992,2470.133,2021-2-24T15:27:41Z
2021-02-24T13:29:40Z,42.805,6.029,13.2990,4.59992,2470.203,2021-2-24T15:30:44Z
2021-02-24T13:32:43Z,42.805,6.029,13.2989,4.59992,2470.18,2021-2-24T15:33:47Z
2021-02-24T13:35:46Z,42.805,6.029,13.2983,4.59992,2470.227,2021-2-24T15:36:51Z
2021-02-24T13:38:49Z,42.805,6.029,13.2991,4.59992,2470.203,2021-2-24T15:39:54Z
2021-02-24T13:41:52Z,42.805,6.029,13.2992,4.59992,2470.18,2021-2-24T15:42:57Z
2021-02-24T13:44:55Z,42.805,6.029,13.2990,4.59993,2470.203,2021-2-24T15:46:00Z
2021-02-24T13:47:58Z,42.805,6.029,13.2990,4.59992,2470.24,2021-2-24T15:49:03Z
2021-02-24T13:51:02Z,42.805,6.029,13.2990,4.59992,2470.217,2021-2-24T15:52:06Z
2021-02-24T13:54:05Z,42.805,6.029,13.2990,4.59993,2470.227,2021-2-24T15:55:09Z
2021-02-24T13:57:08Z,42.805,6.029,13.2989,4.59992,2470.18,2021-2-24T15:58:12Z
2021-02-24T14:00:11Z,42.805,6.029,13.2990,4.59992,2470.217,2021-2-24T16:01:16Z
2021-02-24T14:03:14Z,42.805,6.029,13.2988,4.59993,2470.194,2021-2-24T16:04:19Z
2021-02-24T14:06:17Z,42.805,6.029,13.2986,4.59992,2470.217,2021-2-24T16:07:22Z
2021-02-24T14:09:20Z,42.805,6.029,13.2991,4.59992,2470.18,2021-2-24T16:10:25Z
2021-02-24T14:12:23Z,42.805,6.029,13.2991,4.59993,2470.227,2021-2-24T16:13:28Z
2021-02-24T14:15:27Z,42.805,6.029,13.2993,4.59992,2470.18,2021-2-24T16:16:31Z
2021-02-24T14:18:30Z,42.805,6.029,13.2988,4.59992,2470.171,2021-2-24T16:19:34Z
2021-02-24T14:21:33Z,42.805,6.029,13.2989,4.59993,2470.18,2021-2-24T16:22:37Z
2021-02-24T14:24:36Z,42.805,6.029,13.2989,4.59993,2470.203,2021-2-24T16:25:41Z
2021-02-24T14:27:39Z,42.805,6.029,13.2987,4.59992,2470.217,2021-2-24T16:28:44Z
2021-02-24T14:30:42Z,42.805,6.029,13.2988,4.59993,2470.18,2021-2-24T16:31:47Z
2021-02-24T14:33:45Z,42.805,6.029,13.2990,4.59993,2470.217,2021-2-24T16:34:50Z
2021-02-24T14:36:48Z,42.805,6.029,13.2990,4.59994,2470.227,2021-2-24T16:37:53Z
2021-02-24T14:39:52Z,42.805,6.029,13.2988,4.59992,2470.227,2021-2-24T16:40:56Z
2021-02-24T14:42:55Z,42.805,6.029,13.2990,4.59993,2470.217,2021-2-24T16:43:59Z
2021-02-24T14:45:58Z,42.805,6.029,13.2988,4.59993,2470.24,2021-2-24T16:47:02Z
2021-02-24T14:49:01Z,42.805,6.029,13.2989,4.59993,2470.227,2021-2-24T16:50:06Z
2021-02-24T14:52:04Z,42.805,6.029,13.2990,4.59992,2470.24,2021-2-24T16:53:09Z
2021-02-24T14:55:07Z,42.805,6.029,13.2989,4.59992,2470.217,2021-2-24T16:56:12Z
2021-02-24T14:58:10Z,42.805,6.029,13.2992,4.59993,2470.217,2021-2-24T16:59:15Z
2021-02-24T15:01:13Z,42.805,6.029,13.2990,4.59993,2470.227,2021-2-24T17:02:18Z
2021-02-24T15:04:17Z,42.805,6.029,13.2987,4.59993,2470.24,2021-2-24T17:05:21Z
2021-02-24T15:07:20Z,42.805,6.029,13.2990,4.59993,2470.227,2021-2-24T17:08:24Z
2021-02-24T15:10:23Z,42.805,6.029,13.2991,4.59993,2470.24,2021-2-24T17:11:28Z
2021-02-24T15:13:26Z,42.805,6.029,13.2989,4.59992,2470.227,2021-2-24T17:14:31Z